Showing default

LEMUR 2 CAEL, 58903

Orbit data source: Space-Track

LEMUR 2 CAEL, 58903 is an American payload satellite in SSO that was launched on Wed, 31 Jan 2024 UTC via an ELECTRON launch vehicle from the Rocket Lab Launch Complex (RLLC). Payload-class satellites include a variety of spacecraft equipped with specific instruments for various scientific and technological missions. These include communications satellites like Starlink; space stations such as the ISS; scientific satellites like the Hubble; Earth observation satellites from companies like Planet Labs, Umbra, and HawkEye 360; GPS; miniature CubeSats for education and research; and military/defense satellites.

Loading next visibility...
Identifier
58903, 2024-022E
Orbit
SSO
Country
Flag of USUS
Related business
Manufacturer
Spire/Glasgow
Mission
Operational Commercial Early Warn
Bus & Motor
CUBESAT 3U, Unknown motor
Mass
~25 kg wet, ~25 kg dry
Launch date (UTC)
2024-01-31 (2 years ago)
Launch vehicle
ELECTRON
Launch site
Rocket Lab Launch Complex (RLLC)
Object type
Payload
Rocket body
Debris
Shape & HBR
Box + 2 Pan, 0.5 m
Radar Cross Section
0.146 m², Medium (>0.1 m² and < 1m²)

Expand to show TLE details & history
Last TLE update: 5 hours ago

TLE from 5 hours ago
0 LEMUR 2 CAEL
1 58903U 24022E   25306.51743382  .00016509  00000-0  52887-3 0  9998
2 58903  97.4308 150.3142 0008825 179.7160 180.4089 15.32412809 97526
Epoch: 2025-11-02T12:25Z
TLE epoch observation values (Epoch: 2025-11-02T12:25:06.282Z)
Latitude
0.00007°
Longitude
-77.99401°
Altitude
477.766 km
Speed
7.623 km/s
True Right ascension
10h 01m 15s
True Declination
0° 00' 00"
Sunlit
Object was in daylight at epoch
Visualization orbit readout
Latitude
Unknown
Longitude
Unknown
Altitude
Unknown
Speed
Unknown
Apparent Right ascension
Unknown
Apparent Declination
Unknown
Sunlit
N/A
Visualization observer readout
Local Sidereal Time
13:05:53
Azimuth
Unknown
Elevation
Unknown
Doppler factor
Unknown
Orbital elements
Apogee altitude
471.606 km
Perigee altitude
459.527 km
Semi-major axis
6,843.703 km
Eccentricity
0.00088
Inclination
97.4308°
RAAN
150.3142°
Arg. of periapsis
179.716°
True anomaly
180.40818°
Mean anomaly
180.4089°
Eccentric anomaly
180.40854°
Mean motion
3.8336 °/min
Orbital period
93.91 mins
BSTAR
0.00052887
Loading maneuver chart data...
Computing Atmospheric mass density...
Loading historical data...
Loading historical data...
Loading historical data...
Loading historical data...
Loading historical data...
Loading historical data...
Loading historical data...

Documentation

Showing up to 5 results
|